Orbcomm
NORAD ID: 25159
Int'l Code: 1998-007C
Perigee: 774.9 km
Apogee: 842.5 km
Inclination: 108.0 °
Period: 100.9 minutes
Semi major axis: 7179 km
Launch date: February 10, 1998
Source: ORBCOMM (ORB)
Two Line Element Set (TLE):
1 25159U 98007C 13169.07976427 .00000241 00000-0 15078-3 0 776
2 25159 107.9612 195.9305 0047101 285.5072 157.9500 14.27058965797944
Source: AFSPC
NASA's NSSDC Master Catalog entry for ORBCOMM FM 4